KO5S Weather Reports


time (UTC)temp
F
wind
direction
speed
knots
gust
knots
rain 1hr
in
rain 24hr
in
rain mn
in
humidity
%
barometer
mb
20260504045815 54 0.0 0.0 0.00 0.00 0.00 89 1015.0
20260504044815 55 0.0 0.0 0.00 0.00 0.00 89 1015.0
20260504043815 55 0.0 0.0 0.00 0.00 0.00 88 1015.0
20260504042815 55 0.0 0.0 0.00 0.00 0.00 88 1015.0
20260504041815 55 0.0 0.0 0.00 0.00 0.00 87 1015.0
20260504040815 55 0.0 0.0 0.00 0.00 0.00 87 1014.9
20260504035835 56 0.0 0.0 0.00 0.00 0.00 87 1015.0
20260504034835 56 0.0 0.0 0.00 0.00 0.00 87 1014.9
20260504033815 56 0.0 0.0 0.00 0.00 0.00 85 1014.8
20260504032815 56 0.0 0.0 0.00 0.00 0.00 85 1014.8
20260504031815 57 0.0 0.0 0.00 0.00 0.00 84 1014.7
20260504030835 57 0.0 0.0 0.00 0.00 0.00 84 1014.7
20260504025815 58 0.0 0.0 0.00 0.00 0.00 84 1014.7
20260504024835 58 0.0 0.0 0.00 0.00 0.00 84 1014.5
20260504023816 58 0.0 0.0 0.00 0.00 0.00 83 1014.6
20260504022815 59 0.0 0.0 0.00 0.00 0.00 81 1014.4
20260504021815 59 0.0 0.0 0.00 0.00 0.00 80 1014.4
20260504020835 60 0.0 0.0 0.00 0.00 0.00 79 1014.4
20260504015815 61 0.0 0.0 0.00 0.00 0.00 78 1014.3
20260504014815 61 0.0 0.0 0.00 0.00 0.00 77 1014.2
20260504013815 62 0.0 0.0 0.00 0.00 0.00 74 1014.2
20260504012815 63 0.0 0.0 0.00 0.00 0.00 72 1014.0
20260504011815 64 0.0 0.0 0.00 0.00 0.00 71 1014.0
20260504010817 64 0.0 0.0 0.00 0.00 0.00 70 1013.9
20260504005815 65 0.0 0.0 0.00 0.00 0.00 68 1013.8
20260504004835 66 0.0 0.0 0.00 0.00 0.00 66 1013.6
20260504003815 66 0.0 0.0 0.00 0.00 0.00 67 1013.6
20260504002837 68 0.0 0.0 0.00 0.00 0.00 61 1013.4
20260504001815 69 0.0 0.0 0.00 0.00 0.00 61 1013.3
20260504000815 70 0.0 0.0 0.00 0.00 0.00 57 1013.2
20260503235815 71 0.0 0.0 0.00 0.00 0.00 54 1013.2
20260503234815 72 0.0 0.0 0.00 0.00 0.00 52 1013.2
20260503233815 73 0.0 0.0 0.00 0.00 0.00 49 1013.3
20260503232857 73 0.0 0.0 0.00 0.00 0.00 46 1013.3
20260503231835 74 0.0 0.0 0.00 0.00 0.00 47 1013.4
20260503230815 74 0.0 0.0 0.00 0.00 0.00 46 1013.3
20260503225836 75 0.0 0.0 0.00 0.00 0.00 44 1013.3
20260503224815 75 0.0 0.0 0.00 0.00 0.00 44 1013.3
20260503223815 75 41 0.0 1.7 0.00 0.00 0.00 44 1013.3
20260503222815 75 8 0.9 5.2 0.00 0.00 0.00 42 1013.4
20260503221815 76 304 2.6 5.2 0.00 0.00 0.00 42 1013.4
20260503220815 76 0.0 0.0 0.00 0.00 0.00 42 1013.5
20260503215815 76 0.0 0.0 0.00 0.00 0.00 42 1013.5
20260503214815 77 0.0 0.0 0.00 0.00 0.00 40 1013.5
20260503213815 78 312 2.6 4.3 0.00 0.00 0.00 40 1013.6
20260503212815 78 0.0 0.0 0.00 0.00 0.00 38 1013.8
20260503211835 79 146 0.9 3.5 0.00 0.00 0.00 38 1013.8
20260503210835 78 0.0 0.0 0.00 0.00 0.00 42 1014.0
20260503205815 77 344 1.7 3.5 0.00 0.00 0.00 44 1014.1
20260503204855 78 301 2.6 7.8 0.00 0.00 0.00 41 1014.1
20260503203835 78 0.0 0.0 0.00 0.00 0.00 39 1014.3
20260503202815 77 48 0.9 4.3 0.00 0.00 0.00 39 1014.5
20260503201815 77 0.0 0.0 0.00 0.00 0.00 42 1014.7
20260503200815 77 316 3.5 8.7 0.00 0.00 0.00 41 1014.9
20260503195815 77 296 4.3 7.0 0.00 0.00 0.00 39 1015.2
20260503194815 78 319 4.3 7.0 0.00 0.00 0.00 39 1015.3
20260503193835 77 0.0 4.3 0.00 0.00 0.00 41 1015.4
20260503192835 77 7 2.6 5.2 0.00 0.00 0.00 40 1015.4
20260503191815 77 0.0 0.0 0.00 0.00 0.00 40 1015.5
20260503190856 77 175 0.0 1.7 0.00 0.00 0.00 40 1015.7
20260503185815 77 339 3.5 7.0 0.00 0.00 0.00 41 1015.8
20260503184815 77 311 2.6 5.2 0.00 0.00 0.00 41 1015.9
20260503183815 77 286 4.3 7.0 0.00 0.00 0.00 43 1016.1
20260503182815 76 0.0 0.0 0.00 0.00 0.00 42 1016.2
20260503181815 76 343 2.6 4.3 0.00 0.00 0.00 42 1016.3
20260503180855 76 179 0.0 3.5 0.00 0.00 0.00 41 1016.5
20260503175815 76 0.0 0.0 0.00 0.00 0.00 43 1016.7
20260503174815 75 317 6.1 8.7 0.00 0.00 0.00 40 1016.8
20260503173815 75 352 1.7 5.2 0.00 0.00 0.00 40 1016.9
20260503172835 75 273 2.6 7.0 0.00 0.00 0.00 39 1017.0
20260503171815 76 166 1.7 6.1 0.00 0.00 0.00 40 1017.2
20260503170815 75 323 4.3 7.0 0.00 0.00 0.00 39 1017.2
20260503150835 71 2 0.9 4.3 0.00 0.00 0.00 57 1018.0
20260503130815 54 0.0 0.0 0.00 0.00 0.00 93 1017.3
20260503080816 47 0.0 0.0 0.00 0.21 0.00 91 1015.5
20260503072816 47 0.0 0.0 0.00 0.30 0.00 91 1015.1
20260503071816 47 0.0 0.0 0.00 0.30 0.00 91 1015.2
20260503070837 47 0.0 0.0 0.00 0.30 0.00 91 1015.1